{"data":{"norad_id":56704,"epoch":"2026-09-20T10:04:28.718976Z","epoch_age_seconds":121823,"freshness":"FRESH","line1":"1 56704U 23067S   26263.41977684  .00000209  00000+0  17121-4 0  9991","line2":"2 56704  43.0024 251.1290 0000998 286.9952  73.0791 15.27574481185481","mean_motion":15.27574481,"eccentricity":9.98e-5,"inclination_deg":43.0024,"raan_deg":251.129,"arg_perigee_deg":286.9952,"mean_anomaly_deg":73.0791,"bstar":1.7121e-5,"rev_number":18548,"period_min":94.267089291602,"perigee_km":482.38087393919,"apogee_km":483.75036998253,"semimajor_km":6861.2026219609,"source":"CELESTRAK","updated_at":"2026-09-21T09:00:33.483875Z"}}